Regional Weather Roundup
Issued by NWS

Home | Current Version | Previous Version | Text Only | Print | Product List | Glossary Off
Versions: 1 2 3 4 5 6 7 8 9 10 11 12 13 14 15 16 17 18 19 20 21 22 23 24 25 26 27 28 29 30 31 32 33 34 35 36 37 38 39 40 41 42 43 44 45 46 47 48 49 50

000
ASUS45 KCYS 041410
RWRWY

WYOMING REGIONAL WEATHER ROUNDUP
NATIONAL WEATHER SERVICE CHEYENNE WY
700 AM MST WED MAR 04 2015

NOTE:  "FAIR" INDICATES FEW OR NO CLOUDS BELOW 12,000 FEET
WITH NO SIGNIFICANT WEATHER AND/OR OBSTRUCTIONS TO VISIBILITY.

WYZ001-041500-
YELLOWSTONE NATIONAL PARK

CITY           SKY/WX    TMP DP  RH WIND       PRES   REMARKS
LK YELLOWSTONE   N/A    -23 -28  78 NW3       30.00R
W YELLOWSTONE  NOT AVBL

$$
WYZ002>013-054>058-071-098>099-041500-
NORTHERN WYOMING

CITY           SKY/WX    TMP DP  RH WIND       PRES   REMARKS
JACKSON        CLEAR     -8  -9  92 N6        30.04R WCI -21
CODY           FAIR       0  -8  71 S3        30.08R
GREYBULL       FAIR      -1  -5  82 CALM      30.19R
WORLAND        FAIR       0  -7  72 VRB3      30.15R
SHERIDAN       MOCLDY     6   0  76 NW8       30.14R WCI  -7
BUFFALO        FAIR       2  -6  69 W6        30.06R WCI  -9
GILLETTE       MOCLDY     2  -7  66 W9        30.10R WCI -13
HULETT         FAIR       3  -2  78 W6        30.10R WCI  -8
NEWCASTLE      FAIR       3  -4  72 NW12G18   30.11R WCI -13

$$
WYZ014>020-022>026-101>103-041500-
CENTRAL WYOMING

CITY           SKY/WX    TMP DP  RH WIND       PRES   REMARKS
BIG PINEY      FAIR      -1  -7  75 NE6       30.00R WCI -13
PINEDALE       CLOUDY    -8 -13  77 NW6       30.01R WCI -21
DUBOIS         FAIR      -8 -11  84 N10       29.93R WCI -26
LANDER         FAIR      -5 -11  75 NW7       30.06R WCI -19
RIVERTON       FAIR      -5 -10  79 N3        30.08R
CASPER         FAIR      -6 -11  79 W9        30.07S WCI -23
DOUGLAS        FAIR      -9 -13  83 N9        30.10R WCI -26

$$
WYZ021-027>030-104>119-041500-
SOUTHERN WYOMING

CITY           SKY/WX    TMP DP  RH WIND       PRES   REMARKS
EVANSTON       FAIR      11   8  88 W9        29.99R WCI  -2
FORT BRIDGER   FAIR      15  12  90 W15       29.99R WCI  -1
ROCK SPRINGS   LGT SNOW   1  -3  83 NE5       30.00R FOG     WCI  -9
DIXON          FLURRIES   1  -3  83 CALM      30.04R
RAWLINS        FAIR     -19 -22  86 CALM      29.99R
SARATOGA       PTSUNNY   -6  -9  84 S6        29.98R WCI -18
LARAMIE        FAIR      -8 -10  91 S5        29.94R WCI -19
CHEYENNE       FAIR       1  -4  79 SW7       30.02R WCI -12
TORRINGTON     FAIR       5   0  79 NW9       30.13R WCI  -9
PINE BLUFFS    CLOUDY     9   5  85 S6        30.09S WCI  -1

$$



USA.gov is the U.S. government's official web portal to all federal, state and local government web resources and services.